Regional Weather Roundup
Issued by NWS

Home | Current Version | Previous Version | Text Only | Print | Product List | Glossary Off
Versions: 1 2 3 4 5 6 7 8 9 10 11 12 13 14 15 16 17 18 19 20 21 22 23 24 25 26 27 28 29 30 31 32 33 34 35 36 37 38 39 40 41 42 43 44 45 46 47 48 49 50

000
ASUS45 KCYS 010910
RWRWY

WYOMING REGIONAL WEATHER ROUNDUP
NATIONAL WEATHER SERVICE CHEYENNE WY
300 AM MDT TUE SEP 01 2015

NOTE:  "FAIR" INDICATES FEW OR NO CLOUDS BELOW 12,000 FEET
WITH NO SIGNIFICANT WEATHER AND/OR OBSTRUCTIONS TO VISIBILITY.

WYZ001-011000-
YELLOWSTONE NATIONAL PARK

CITY           SKY/WX    TMP DP  RH WIND       PRES   REMARKS
LK YELLOWSTONE   N/A     34  27  75 CALM      30.21S
W YELLOWSTONE  NOT AVBL

$$
WYZ002>013-054>058-071-098>099-011000-
NORTHERN WYOMING

CITY           SKY/WX    TMP DP  RH WIND       PRES   REMARKS
JACKSON        FAIR      39  32  75 N8        30.13F WCI  34
CODY           FAIR      57  27  30 CALM      29.97S
GREYBULL       FAIR      54  34  46 SE6       29.91S
WORLAND        FAIR      56  29  35 S5        29.93F
SHERIDAN       FAIR      49  42  77 S3        29.91S
BUFFALO        FAIR      60  38  43 W8        29.97F
GILLETTE       FAIR      58  48  69 CALM      29.93S
HULETT         FAIR      55  52  88 CALM      29.94S
NEWCASTLE      FAIR      64  43  45 SE8       29.96S

$$
WYZ014>020-022>026-101>103-011000-
CENTRAL WYOMING

CITY           SKY/WX    TMP DP  RH WIND       PRES   REMARKS
BIG PINEY      FAIR      40  23  50 E5        30.18F
PINEDALE       FAIR      37  28  70 W3        30.19S
DUBOIS         FAIR      46  23  39 NW3       30.14S
LANDER         FAIR      57  26  30 W9        30.02F
RIVERTON       FAIR      60  30  32 S8        30.03F
CASPER         FAIR      62  40  44 SW12      30.04S
DOUGLAS        FAIR      56  41  57 S3        30.02S

$$
WYZ021-027>030-104>119-011000-
SOUTHERN WYOMING

CITY           SKY/WX    TMP DP  RH WIND       PRES   REMARKS
EVANSTON       FAIR      56  40  55 SE7       30.18F
KEMMERER       FAIR      45  30  57 N10       30.20S
FORT BRIDGER   SUNNY     57  43  58 W8        30.20S
ROCK SPRINGS   FAIR      58  40  51 SW7       30.16F
DIXON          FAIR      53  45  74 E9        30.22F
RAWLINS        FAIR      59  40  49 SW12      30.17S
SARATOGA       FAIR      50  43  76 S10       30.22R
LARAMIE        FAIR      46  41  82 SE9       30.21S
CHEYENNE       FAIR      54  46  74 SW10      30.13F
TORRINGTON     FAIR      59  48  67 SE7       29.99S
PINE BLUFFS    FAIR      52  46  82 SW5       30.09S

$$


USA.gov is the U.S. government's official web portal to all federal, state and local government web resources and services.